Regional Weather Roundup
Issued by NWS

Home | Current Version | Previous Version | Text Only | Print | Product List | Glossary Off
Versions: 1 2 3 4 5 6 7 8 9 10 11 12 13 14 15 16 17 18 19 20 21 22 23 24 25 26 27 28 29 30 31 32 33 34 35 36 37 38 39 40 41 42 43 44 45 46 47 48 49 50

000
ASUS45 KBOU 020307
RWRCO

WEATHER ROUNDUP FOR COLORADO
NATIONAL WEATHER SERVICE DENVER/BOULDER CO
900 PM MDT MON SEP 01 2014

NOTE: "FAIR" INDICATES FEW OR NO CLOUDS BELOW 12000 FEET WITH NO
SIGNIFICANT WEATHER AND/OR OBSTRUCTIONS TO VISIBILITY.

COZ001>005-013-030-031-020400-
...NORTHWEST COLORADO...

CITY           SKY/WX    TMP DP  RH WIND       PRES   REMARKS
CRAIG          CLEAR     55  39  54 VRB3      30.16R
HAYDEN         CLEAR     59  32  36 SW8       30.18R
MEEKER         CLEAR     59  37  44 CALM      30.17R
MOUNT WERNER   NOT AVBL
STEAMBOAT SPGS CLEAR     56  36  46 E5        30.20R
WALDEN         CLEAR     52  32  46 SW7       30.27R
$$

COZ006>008-011-020400-
...WEST CENTRAL VALLEYS...

CITY           SKY/WX    TMP DP  RH WIND       PRES   REMARKS
GRAND JUNCTION CLEAR     67  42  40 E3        30.02R
MONTROSE       CLEAR     68  42  38 W5        30.13R
EAGLE          CLEAR     66  34  30 CALM      30.20R
RIFLE          CLEAR     71  33  24 W5        30.09R
DELTA          CLEAR     72  35  25 CALM      30.07R
NUCLA          CLEAR     70  32  24 N7        30.14R
$$

COZ017>023-064>068-020400-
...SOUTHWEST COLORADO...

CITY           SKY/WX    TMP DP  RH WIND       PRES   REMARKS
DURANGO        CLEAR     71  30  21 W5        30.16R
CORTEZ         CLEAR     70  34  26 S5        30.10R
PAGOSA SPRINGS CLEAR     66  28  24 W5        30.24R
TELLURIDE      NOT AVBL
WOLF CREEK PAS CLEAR     48  28  46 SW15      30.55R
$$

COZ009-010-012-014-032>034-037-058>063-020400-
...CENTRAL COLORADO...

CITY           SKY/WX    TMP DP  RH WIND       PRES   REMARKS
ASPEN          CLEAR     56  35  45 S8        30.26R
BUENA VISTA    CLEAR     57  26  31 W8        30.26R
COPPER MTN     CLEAR     46  28  49 W21       30.54R
BERTHOUD PASS  FAIR      36  36 100 NW21      30.57R
COTTONWOOD PAS CLEAR     61  21  21 NW8       30.40R
GUNNISON       CLEAR     63  30  29 NW5       30.27R
KREMMLING      CLEAR     52  32  46 S5        30.25R
LEADVILLE      CLEAR     50  29  44 CALM      30.40R
MONARCH PASS   CLEAR     46  28  49 W18       30.64R
SALIDA         CLEAR     65  31  28 W7        30.29R
SUNLIGHT       CLEAR     52  32  46 CALM      30.48R
WILKERSON PASS NOT AVBL
$$

COZ069>075-020400-
...SAN LUIS VALLEY/SANGRE DE CRISTO MOUNTAINS...

CITY           SKY/WX    TMP DP  RH WIND       PRES   REMARKS
ALAMOSA        PTCLDY    71  29  21 N8        30.19R
LA VETA PASS   NOT AVBL
SAGUACHE       NOT AVBL
$$

COZ035-036-038>040-020400-
...NORTHERN COLORADO FRONT RANGE...

CITY           SKY/WX    TMP DP  RH WIND       PRES   REMARKS
DENVER INTL AP PTCLDY    63  44  50 E7        30.08R
DMNS CITY PARK   N/A     66  44  45 NW5       30.08R
AURORA         PTCLDY    63  43  48 E7        30.11R
FRONT RANGE AP NOT AVBL
ERIE MUNI ARPT CLEAR     61  46  57 CALM      30.07R
BOULDER MUN AP CLEAR     64  45  48 W5        30.08R
CENTENNIAL     PTCLDY    67  47  48 SE3       30.11R
BROOMFIELD     PTCLDY    68  41  37 W7        30.11R
FORT COLLINS   CLEAR     68  54  60 CALM      30.07R
LONGMONT       CLEAR     62  47  58 CALM      30.09R
$$

COZ041-046-047-076>085-087-088-020400-
...PIKES PEAK/PALMER DIVIDE AND SOUTHERN FOOTHILLS...

CITY           SKY/WX    TMP DP  RH WIND       PRES   REMARKS
COLO. SPRINGS  PTCLDY    67  45  45 CALM      30.15R
A. F. ACADEMY  CLEAR     60  48  62 N6        30.16R
ELLICOTT       CLEAR     63  43  48 E10       30.13R
FALCON         CLEAR     62  45  54 CALM      30.20R
FORT CARSON    CLEAR     66  46  48 NW7       30.12R
LIMON          PTCLDY    61  46  57 CALM      30.08R
MONUMENT HILL  CLEAR     54  45  71 S8        30.19R
TRINIDAD       CLEAR     68  44  42 W7        30.00R
$$

COZ042>045-048>051-090-091-020400-
...NORTHEAST COLORADO...

CITY           SKY/WX    TMP DP  RH WIND       PRES   REMARKS
GREELEY ARPT   CLEAR     63  45  51 NE5       30.05R
AKRON          CLEAR     68  49  50 MISG      30.03R
BURLINGTON     CLEAR     65  48  54 S8        30.01R
WRAY             N/A     68  50  53 SE5       29.96S
STERLING       CLEAR     70  50  49 NE8       30.01R
HOLYOKE        PTCLDY    64  55  72 N7G21     30.00R
FORT MORGAN    CLEAR     65  45  47 W6        30.03R
$$

COZ086-089-092>099-020400-
...SOUTHEAST COLORADO...

CITY           SKY/WX    TMP DP  RH WIND       PRES   REMARKS
PUEBLO         CLEAR     75  41  29 NE14      30.00R
LA JUNTA       CLEAR     74  48  39 E10       29.96R
LAMAR          CLEAR     71  53  52 E9        29.95R
SPRINGFIELD      N/A     70  57  63 E10       29.98R
$$


USA.gov is the U.S. government's official web portal to all federal, state and local government web resources and services.